{"data":{"norad_id":59322,"intl_designator":"2024-057C","name":"STARLINK-31530","alt_names":[],"object_type":"PAYLOAD","status":"ACTIVE","operator":null,"country":"US","launch_date":"2024-03-25","launch_site_code":"AFETR","launch_vehicle":null,"mission":null,"orbit_class":"UNKNOWN","rcs_meters":null,"size_class":null,"mass_kg":null,"dimensions":null,"purposes":["comms"],"wikipedia_slug":null,"has_3d_model":false,"image_url":null,"decayed_at":null,"tle_current":{"epoch":"2026-09-19T23:03:39.696768Z","epoch_age_seconds":57781,"freshness":"FRESH","line1":"1 59322U 24057C   26262.96087612  .04580271  64385-1  57046-2 0  9994","line2":"2 59322  42.9738  99.2125 0023106 279.6888  80.1385 16.12284920140357","mean_motion":16.1228492,"eccentricity":0.0023106,"inclination_deg":42.9738,"raan_deg":99.2125,"arg_perigee_deg":279.6888,"mean_anomaly_deg":80.1385,"bstar":0.0057046,"rev_number":14035,"period_min":89.314238577633,"perigee_km":225.28934520951,"apogee_km":255.87577203381,"semimajor_km":6618.7195586217,"source":"CELESTRAK","updated_at":"2026-09-20T09:00:41.382821Z"}}}